• In Belarus
  • List of Countries
  • For 7 days
  • Water Temperature
  • Satellite Maps
  • Weather Map
  • Weather Widgets
  • user-avatar
    Login

    Hourly Weather Sidi Bu-l-Abbas

    Today, 22 August, Tuesday

    Time Temperature Precipitation Wind Pressure Humidity
    00:00 +28°C° 0 mm 2 mps 722 mmHg 59%
    01:00 +27°C° 0 mm 1 mps 721 mmHg 62%
    02:00 +27°C° 0 mm 1 mps 721 mmHg 64%
    03:00 +26°C° 0 mm 1 mps 721 mmHg 66%
    04:00 +26°C° 0 mm 1 mps 722 mmHg 67%
    05:00 +25°C° 0 mm 1 mps 722 mmHg 69%
    06:00 +25°C° 0 mm 1 mps 722 mmHg 70%
    07:00 +27°C° 0 mm 1 mps 722 mmHg 61%
    08:00 +28°C° 0 mm 1 mps 722 mmHg 52%
    09:00 +29°C° 0 mm 1 mps 722 mmHg 44%
    10:00 +31°C° 0 mm 2 mps 722 mmHg 39%
    11:00 +32°C° 0 mm 2 mps 722 mmHg 34%
    12:00 +35°C° 0 mm 3 mps 722 mmHg 29%
    13:00 +35°C° 0 mm 4 mps 722 mmHg 28%
    14:00 +35°C° 0 mm 4 mps 721 mmHg 28%
    15:00 +36°C° 0 mm 5 mps 721 mmHg 27%
    16:00 +35°C° 0 mm 5 mps 721 mmHg 29%
    17:00 +34°C° 0 mm 4 mps 721 mmHg 31%
    18:00 +33°C° 0 mm 4 mps 721 mmHg 33%
    19:00 +31°C° 0 mm 3 mps 721 mmHg 35%
    20:00 +30°C° 0 mm 3 mps 721 mmHg 38%
    21:00 +29°C° 0 mm 2 mps 721 mmHg 41%
    22:00 +29°C° 0 mm 2 mps 721 mmHg 43%
    23:00 +28°C° 0 mm 1 mps 721 mmHg 45%

    Tomorrow, 23 August, Wednesday

    Time Temperature Precipitation Wind Pressure Humidity
    00:00 +27°C° 0 mm 1 mps 721 mmHg 47%
    01:00 +27°C° 0 mm 1 mps 721 mmHg 49%
    02:00 +26°C° 0 mm 1 mps 720 mmHg 51%
    03:00 +26°C° 0 mm 1 mps 720 mmHg 53%
    04:00 +25°C° 0 mm 1 mps 720 mmHg 54%
    05:00 +25°C° 0 mm 1 mps 720 mmHg 55%
    06:00 +23°C° 0 mm 0 mps 721 mmHg 56%
    07:00 +27°C° 0 mm 1 mps 721 mmHg 48%
    08:00 +29°C° 0 mm 1 mps 721 mmHg 39%
    09:00 +31°C° 0 mm 1 mps 722 mmHg 31%
    10:00 +32°C° 0 mm 1 mps 722 mmHg 28%
    11:00 +35°C° 0 mm 2 mps 722 mmHg 25%
    12:00 +36°C° 0 mm 2 mps 722 mmHg 21%
    13:00 +36°C° 0 mm 3 mps 721 mmHg 22%
    14:00 +37°C° 0 mm 4 mps 721 mmHg 22%
    15:00 +37°C° 0 mm 4 mps 721 mmHg 22%
    16:00 +36°C° 0 mm 4 mps 720 mmHg 25%
    17:00 +35°C° 0 mm 4 mps 720 mmHg 28%
    18:00 +34°C° 0 mm 4 mps 720 mmHg 31%
    19:00 +33°C° 0 mm 3 mps 720 mmHg 34%
    20:00 +32°C° 0 mm 2 mps 721 mmHg 37%
    21:00 +31°C° 0 mm 2 mps 721 mmHg 41%
    22:00 +30°C° 0 mm 1 mps 721 mmHg 43%
    23:00 +29°C° 0 mm 1 mps 720 mmHg 45%

    Day after tomorrow, 24 August, Thursday

    Time Temperature Precipitation Wind Pressure Humidity
    00:00 +29°C° 0 mm 1 mps 720 mmHg 47%
    01:00 +28°C° 0 mm 1 mps 720 mmHg 49%
    02:00 +28°C° 0 mm 1 mps 720 mmHg 52%
    03:00 +27°C° 0 mm 1 mps 720 mmHg 54%
    04:00 +27°C° 0 mm 1 mps 720 mmHg 56%
    05:00 +25°C° 0 mm 0 mps 720 mmHg 57%
    06:00 +24°C° 0 mm 0 mps 720 mmHg 58%
    07:00 +26°C° 0 mm 0 mps 721 mmHg 51%
    08:00 +30°C° 0 mm 1 mps 721 mmHg 44%
    09:00 +32°C° 0 mm 1 mps 721 mmHg 37%
    10:00 +33°C° 0 mm 1 mps 721 mmHg 34%
    11:00 +36°C° 0 mm 2 mps 721 mmHg 30%
    12:00 +37°C° 0 mm 3 mps 721 mmHg 26%
    13:00 +37°C° 0 mm 3 mps 721 mmHg 28%
    14:00 +37°C° 0 mm 4 mps 721 mmHg 30%
    15:00 +37°C° 0 mm 4 mps 720 mmHg 31%
    16:00 +36°C° 0 mm 4 mps 720 mmHg 34%
    17:00 +35°C° 0 mm 3 mps 720 mmHg 36%
    18:00 +34°C° 0 mm 3 mps 720 mmHg 38%
    19:00 +32°C° 0 mm 2 mps 720 mmHg 40%
    20:00 +32°C° 0 mm 2 mps 720 mmHg 42%
    21:00 +31°C° 0 mm 1 mps 721 mmHg 44%
    22:00 +31°C° 0 mm 1 mps 720 mmHg 46%
    23:00 +30°C° 0 mm 1 mps 720 mmHg 48%

    25 August, Friday

    Time Temperature Precipitation Wind Pressure Humidity
    00:00 +30°C° 0 mm 1 mps 720 mmHg 50%
    01:00 +29°C° 0 mm 1 mps 720 mmHg 52%
    02:00 +29°C° 0 mm 1 mps 720 mmHg 53%
    03:00 +28°C° 0 mm 1 mps 719 mmHg 55%
    04:00 +28°C° 0 mm 1 mps 719 mmHg 55%
    05:00 +28°C° 0 mm 1 mps 720 mmHg 55%
    06:00 +28°C° 0 mm 1 mps 720 mmHg 54%
    07:00 +30°C° 0 mm 1 mps 720 mmHg 48%
    08:00 +32°C° 0 mm 1 mps 720 mmHg 42%
    09:00 +33°C° 0 mm 1 mps 721 mmHg 36%
    10:00 +34°C° 0 mm 1 mps 720 mmHg 32%
    11:00 +37°C° 0 mm 2 mps 720 mmHg 29%
    12:00 +38°C° 0 mm 3 mps 720 mmHg 25%
    13:00 +39°C° 0 mm 3 mps 720 mmHg 25%
    14:00 +40°C° 0 mm 4 mps 719 mmHg 25%
    15:00 +40°C° 0 mm 4 mps 719 mmHg 24%
    16:00 +38°C° 0 mm 4 mps 718 mmHg 27%
    17:00 +37°C° 0 mm 4 mps 718 mmHg 29%
    18:00 +36°C° 0 mm 3 mps 718 mmHg 32%
    19:00 +35°C° 0 mm 2 mps 718 mmHg 34%
    20:00 +34°C° 0 mm 2 mps 719 mmHg 37%
    21:00 +32°C° 0 mm 1 mps 719 mmHg 39%
    22:00 +32°C° 0 mm 1 mps 719 mmHg 41%
    23:00 +31°C° 0 mm 1 mps 719 mmHg 43%

    26 August, Saturday

    Time Temperature Precipitation Wind Pressure Humidity
    00:00 +31°C° 0 mm 2 mps 719 mmHg 44%
    01:00 +30°C° 0.1 mm 1 mps 718 mmHg 45%
    02:00 +30°C° 0.1 mm 1 mps 718 mmHg 46%
    03:00 +30°C° 0.1 mm 1 mps 718 mmHg 46%
    04:00 +29°C° 0 mm 1 mps 718 mmHg 48%
    05:00 +29°C° 0 mm 1 mps 718 mmHg 49%
    06:00 +28°C° 0 mm 1 mps 718 mmHg 51%
    07:00 +30°C° 0 mm 2 mps 718 mmHg 46%
    08:00 +31°C° 0 mm 2 mps 719 mmHg 42%
    09:00 +33°C° 0 mm 3 mps 719 mmHg 37%
    10:00 +34°C° 0 mm 3 mps 719 mmHg 35%
    11:00 +35°C° 0 mm 4 mps 719 mmHg 32%
    12:00 +36°C° 0 mm 5 mps 719 mmHg 30%
    13:00 +35°C° 0.2 mm 4 mps 718 mmHg 29%
    14:00 +35°C° 0.2 mm 4 mps 718 mmHg 29%
    15:00 +35°C° 0.2 mm 4 mps 718 mmHg 28%
    16:00 +34°C° 0.2 mm 4 mps 718 mmHg 30%
    17:00 +33°C° 0.2 mm 3 mps 717 mmHg 32%
    18:00 +31°C° 0.2 mm 3 mps 717 mmHg 33%
    19:00 +31°C° 0.3 mm 3 mps 718 mmHg 35%
    20:00 +30°C° 0.3 mm 3 mps 718 mmHg 37%
    21:00 +30°C° 0.3 mm 3 mps 719 mmHg 39%
    22:00 +29°C° 0.3 mm 3 mps 719 mmHg 41%
    23:00 +29°C° 0.3 mm 3 mps 719 mmHg 42%

    27 August, Sunday

    Time Temperature Precipitation Wind Pressure Humidity
    00:00 +29°C° 0.3 mm 3 mps 719 mmHg 43%
    01:00 +29°C° 0 mm 3 mps 718 mmHg 43%
    02:00 +29°C° 0 mm 3 mps 718 mmHg 43%
    03:00 +28°C° 0 mm 3 mps 718 mmHg 43%
    04:00 +28°C° 0 mm 3 mps 718 mmHg 46%
    05:00 +27°C° 0 mm 3 mps 718 mmHg 49%
    06:00 +26°C° 0 mm 2 mps 718 mmHg 52%
    07:00 +28°C° 0 mm 3 mps 719 mmHg 48%
    08:00 +29°C° 0 mm 3 mps 719 mmHg 44%
    09:00 +30°C° 0 mm 3 mps 719 mmHg 39%
    10:00 +32°C° 0 mm 4 mps 719 mmHg 37%
    11:00 +33°C° 0 mm 5 mps 719 mmHg 35%
    12:00 +34°C° 0 mm 6 mps 718 mmHg 33%
    13:00 +34°C° 0 mm 6 mps 718 mmHg 34%
    14:00 +33°C° 0 mm 6 mps 718 mmHg 35%
    15:00 +33°C° 0 mm 6 mps 718 mmHg 37%
    16:00 +32°C° 0.3 mm 5 mps 718 mmHg 40%
    17:00 +29°C° 0.3 mm 4 mps 718 mmHg 43%
    18:00 +28°C° 0.3 mm 4 mps 718 mmHg 45%
    19:00 +28°C° 0.2 mm 3 mps 718 mmHg 46%
    20:00 +27°C° 0.2 mm 3 mps 718 mmHg 47%
    21:00 +27°C° 0.2 mm 3 mps 718 mmHg 48%
    22:00 +27°C° 0.5 mm 2 mps 719 mmHg 50%
    23:00 +26°C° 0.5 mm 2 mps 719 mmHg 52%
    Show more